Time,TemperatureF,DewpointF,PressureIn,WindDirection,WindDirectionDegrees,WindSpeedMPH,WindSpeedGustMPH,Humidity,HourlyPrecipIn,Conditions,Clouds,dailyrainin,SoftwareType,DateUTC
2013-01-06 16:12:00,34.0,28.0,29.91,West,263,0.0,4.0,79,0.00,,,0.08,,2013-01-06 21:12:00,
2013-01-06 16:22:00,34.0,28.0,29.93,NW,306,0.0,3.0,79,0.00,,,0.08,,2013-01-06 21:22:00,
2013-01-06 16:33:00,34.0,28.0,29.94,NW,319,0.0,2.0,80,0.00,,,0.08,,2013-01-06 21:33:00,
2013-01-06 16:43:00,34.0,28.0,29.94,NW,319,0.0,2.0,80,0.00,,,0.08,,2013-01-06 21:43:00,
2013-01-06 16:53:00,34.0,28.0,29.95,WNW,296,0.0,4.0,80,0.00,,,0.08,,2013-01-06 21:53:00,
2013-01-06 17:02:00,34.0,28.0,29.96,WNW,295,0.0,2.0,80,0.00,,,0.08,,2013-01-06 22:02:00,
2013-01-06 17:12:00,34.0,28.0,29.96,WNW,295,0.0,2.0,80,0.00,,,0.08,,2013-01-06 22:12:00,
2013-01-06 17:22:00,34.0,29.0,29.97,NNW,327,0.0,1.0,81,0.00,,,0.08,,2013-01-06 22:22:00,
2013-01-06 17:33:00,34.0,29.0,29.98,SW,221,3.0,3.0,81,0.00,,,0.08,,2013-01-06 22:33:00,
2013-01-06 17:43:00,34.0,29.0,29.98,SW,221,3.0,3.0,81,0.00,,,0.08,,2013-01-06 22:43:00,
2013-01-06 17:53:00,34.0,29.0,29.99,WNW,294,1.0,1.0,82,0.00,,,0.08,,2013-01-06 22:53:00,
2013-01-06 18:02:00,34.0,29.0,30.00,WNW,294,0.0,3.0,82,0.00,,,0.08,,2013-01-06 23:02:00,
2013-01-06 18:12:00,34.0,29.0,30.00,WNW,294,0.0,3.0,82,0.00,,,0.08,,2013-01-06 23:12:00,
2013-01-06 18:22:00,34.0,29.0,30.01,WNW,299,0.0,4.0,83,0.00,,,0.08,,2013-01-06 23:22:00,
2013-01-06 18:33:00,34.0,29.0,30.03,NNW,336,0.0,2.0,83,0.00,,,0.08,,2013-01-06 23:33:00,
2013-01-06 18:43:00,34.0,29.0,30.03,NNW,336,0.0,2.0,83,0.00,,,0.08,,2013-01-06 23:43:00,
2013-01-06 18:53:00,34.0,29.0,30.04,WNW,285,0.0,3.0,83,0.00,,,0.08,,2013-01-06 23:53:00,
2013-01-06 19:02:00,34.0,29.0,30.06,NNW,340,1.0,3.0,82,0.00,,,0.08,,2013-01-07 00:02:00,
2013-01-06 19:12:00,34.0,29.0,30.06,NNW,340,1.0,3.0,82,0.00,,,0.08,,2013-01-07 00:12:00,
2013-01-06 19:23:00,34.0,29.0,30.06,North,5,0.0,2.0,81,0.00,,,0.08,,2013-01-07 00:23:00,
2013-01-06 19:33:00,33.0,28.0,30.07,North,350,2.0,3.0,81,0.00,,,0.08,,2013-01-07 00:33:00,
2013-01-06 19:43:00,33.0,28.0,30.07,North,350,2.0,3.0,81,0.00,,,0.08,,2013-01-07 00:43:00,
2013-01-06 19:53:00,33.0,28.0,30.07,North,0,0.0,1.0,81,0.00,,,0.08,,2013-01-07 00:53:00,
2013-01-06 20:02:00,33.0,28.0,30.09,NW,308,0.0,2.0,81,0.00,,,0.08,,2013-01-07 01:02:00,
2013-01-06 20:12:00,33.0,28.0,30.09,NW,308,0.0,2.0,81,0.00,,,0.08,,2013-01-07 01:12:00,
2013-01-06 20:23:00,33.0,28.0,30.10,WNW,296,0.0,2.0,81,0.00,,,0.08,,2013-01-07 01:23:00,
2013-01-06 20:32:00,33.0,28.0,30.11,NW,315,0.0,1.0,81,0.00,,,0.08,,2013-01-07 01:32:00,
2013-01-06 20:42:00,33.0,28.0,30.11,NW,315,0.0,1.0,81,0.00,,,0.08,,2013-01-07 01:42:00,
2013-01-06 20:53:00,33.0,28.0,30.12,NW,318,0.0,3.0,81,0.00,,,0.08,,2013-01-07 01:53:00,
2013-01-06 21:02:00,33.0,28.0,30.13,NNW,327,0.0,2.0,80,0.00,,,0.08,,2013-01-07 02:02:00,
2013-01-06 21:12:00,33.0,28.0,30.13,NNW,327,0.0,2.0,80,0.00,,,0.08,,2013-01-07 02:12:00,
2013-01-06 21:23:00,33.0,28.0,30.13,North,11,0.0,1.0,80,0.00,,,0.08,,2013-01-07 02:23:00,
2013-01-06 21:32:00,33.0,27.0,30.14,North,355,1.0,9.0,79,0.00,,,0.08,,2013-01-07 02:32:00,
2013-01-06 21:42:00,33.0,27.0,30.14,North,355,1.0,9.0,79,0.00,,,0.08,,2013-01-07 02:42:00,
2013-01-06 21:53:00,32.0,26.0,30.14,NNE,19,0.0,4.0,79,0.00,,,0.08,,2013-01-07 02:53:00,
2013-01-06 22:02:00,32.0,26.0,30.14,North,0,0.0,5.0,78,0.00,,,0.08,,2013-01-07 03:02:00,
2013-01-06 22:12:00,32.0,26.0,30.14,North,0,0.0,5.0,78,0.00,,,0.08,,2013-01-07 03:12:00,
2013-01-06 22:22:00,32.0,26.0,30.15,North,5,0.0,2.0,77,0.00,,,0.08,,2013-01-07 03:22:00,
2013-01-06 22:33:00,32.0,26.0,30.15,NNE,19,0.0,0.0,77,0.00,,,0.08,,2013-01-07 03:33:00,
2013-01-06 22:43:00,32.0,26.0,30.15,NNE,19,0.0,0.0,77,0.00,,,0.08,,2013-01-07 03:43:00,
2013-01-06 22:53:00,32.0,26.0,30.16,North,10,0.0,0.0,77,0.00,,,0.08,,2013-01-07 03:53:00,
2013-01-06 23:02:00,32.0,26.0,30.18,North,10,0.0,0.0,78,0.00,,,0.08,,2013-01-07 04:02:00,
2013-01-06 23:12:00,32.0,26.0,30.18,North,10,0.0,0.0,78,0.00,,,0.08,,2013-01-07 04:12:00,
2013-01-06 23:22:00,31.0,25.0,30.18,North,10,0.0,0.0,78,0.00,,,0.08,,2013-01-07 04:22:00,
2013-01-06 23:32:00,31.0,26.0,30.18,North,10,0.0,0.0,80,0.00,,,0.08,,2013-01-07 04:32:00,
2013-01-06 23:42:00,31.0,26.0,30.18,North,10,0.0,0.0,80,0.00,,,0.08,,2013-01-07 04:42:00,
2013-01-06 23:52:00,30.0,25.0,30.17,North,10,0.0,0.0,81,0.00,,,0.08,,2013-01-07 04:52:00,